Terminal Aerodrome Forecast
Issued by NWS Mt. Holly, NJ

Home | Current Version | Previous Version | Text Only | Print | Product List | Glossary On
Versions: 1 2 3 4 5 6 7 8 9 10 11 12 13 14 15 16 17 18 19
000
FTUS41 KPHI 301100
TAFPHL
TAF
KPHL 301137Z 3012/0118 15005KT P6SM BKN150
     FM301800 11006KT P6SM SCT050 BKN150
     FM010600 03008KT P6SM BKN010
     FM010900 02010KT 6SM BR OVC006
     FM011500 04010KT P6SM BKN010=

USA.gov is the U.S. government's official web portal to all federal, state and local government web resources and services.